Regional Weather Roundup
Issued by NWS Kansas City/Pleasant Hill, MO

Home | Current Version | Previous Version | Text Only | Print | Product List | Glossary On
Versions: 1 2 3 4 5 6 7 8 9 10 11 12 13 14 15 16 17 18 19 20 21 22 23 24 25 26 27 28 29 30 31 32 33 34 35 36 37 38 39 40 41 42 43 44 45 46 47 48 49 50
000
ASUS43 KEAX 230311
RWREAX

WEATHER ROUNDUP FOR EASTERN KANSAS AND NORTHWEST MISSOURI
NATIONAL WEATHER SERVICE KANSAS CITY/PLEASANT HILL MO
1000 PM CDT FRI MAY 22 2015

KSZ040-057-103>105-MOZ028-029-037-043-230400-
...KANSAS CITY METROPOLITAN AREA...

CITY           SKY/WX    TMP DP  RH WIND       PRES   REMARKS
K.C. INTL      CLOUDY    60  51  72 SE8       30.20S
K.C. DOWNTOWN  CLOUDY    63  49  60 E7        30.19S
LEES SUMMIT    CLOUDY    60  52  74 E7        30.21S
OLATHE - IXD   CLOUDY    60  52  74 E5        30.21R
OLATHE - OJC   CLOUDY    60  52  74 SE6       30.20R
LAWRENCE       CLOUDY    60  53  77 E7        30.20S

$$

MOZ001>008-011>017-020>025-030>033-038>040-044>046-053-054-230400-
...NORTHERN AND CENTRAL MISSOURI...

CITY           SKY/WX    TMP DP  RH WIND       PRES   REMARKS
ST. JOSEPH     CLOUDY    61  50  67 SE6       30.20S
MOSBY          CLOUDY    61  52  72 CALM      30.21S
WARRENSBURG    CLOUDY    61  52  72 E3        30.22R
WHITEMAN AFB   CLOUDY    61  54  76 E5        30.21S
CLINTON        CLOUDY    63  55  77 E5        30.22S
SEDALIA        CLOUDY    63  54  72 E6        30.24R
WARSAW         NOT AVBL
CHILLICOTHE      N/A     64  54  69 SE3       30.23S
KIRKSVILLE     MOCLDY    58  55  90 CALM      30.24R

$$

MOZ041-047>049-056>058-063>065-088>090-097-230400-
...EASTERN AND SOUTHERN MISSOURI...

CITY           SKY/WX    TMP DP  RH WIND       PRES   REMARKS
ST. LOUIS INTL CLOUDY    66  50  56 CALM      30.26R
SPIRIT OF STL  CLOUDY    62  58  86 CALM      30.25R
COLUMBIA       CLOUDY    62  54  74 E5        30.25R
JEFFERSON CITY CLOUDY    65  52  62 SE3       30.24R
ROLLA          CLOUDY    61  54  77 CALM      30.24R
OSAGE BEACH    CLOUDY    63  52  67 E3        30.23R
SPRINGFIELD    CLOUDY    61  48  62 SE9       30.21S
BRANSON        MOCLDY    57  48  72 CALM      30.23R
JOPLIN         CLOUDY    61  50  67 E7        30.20R
WEST PLAINS    CLOUDY    60  47  61 SE6       30.25S

$$

IAZ060-094-KSZ022-034>040-054-083-096-NEZ052-066-093-230400-
...KANSAS...SOUTHEAST NEBRASKA AND IOWA...

CITY           SKY/WX    TMP DP  RH WIND       PRES   REMARKS
TOPEKA         CLOUDY    60  51  72 SE6       30.19S
MANHATTAN      CLOUDY    60  48  64 SE5       30.18R
EMPORIA        CLOUDY    58  50  75 SE6G17    30.17S
CHANUTE        CLOUDY    61  51  70 E5        30.18R
WICHITA        CLOUDY    56  53  90 SE12      30.15S
OMAHA          CLOUDY    61  48  62 SE7       30.19R
LINCOLN        CLOUDY    61  46  57 SE8       30.18S
FALLS CITY     CLOUDY    59  49  69 S5        30.19R
LAMONI           N/A     63  52  67 SE5       30.22S
DES MOINES     CLOUDY    64  47  53 S3        30.22R

$$




USA.gov is the U.S. government's official web portal to all federal, state and local government web resources and services.